Location: Winthrop
(48.4780°N, 120.1850°W)
Time: 18:05:59
(UTC-07:00)

Explorer 7 - Pass Details

Date: 07 February 2023
Orbit: 478 x 657 km, 50.3° (Epoch: 30 March)

Event Time Altitude Azimuth Distance (km) Brightness Sun altitude
Rises 16:18:43 0° 287° (WNW) 2,821 11.1 6.6°
Reaches altitude 10° 16:21:10 10° 276° (W) 1,949 10.6 6.3°
Maximum altitude 16:25:01 28° 217° (SW) 1,164 9.7 5.7°
Drops below altitude 10° 16:29:00 10° 159° (SSE) 2,025 9.8 5.2°
Sets 16:31:36 0° 148° (SSE) 2,951 10.5 4.8°
